Location: Huberville
(49.5169°N, 1.4281°W)
Time: 22:10:33
(UTC+00:00)

Daily predictions for brighter satellites

Satellite Brightness Start Highest point End
(mag) Time Altitude Azimuth Time Altitude Azimuth Time Altitude Azimuth
CENTAUR R/B 3.3 18:16:07 10° NW 18:23:53 63° NE 18:32:32 10° ESE
Iridium 4 Rocket 3.8 18:23:34 10° S 18:28:48 86° W 18:34:31 10° N
CSL-04 Debris 4.3 18:25:58 10° SE 18:31:14 58° ENE 18:36:32 10° N
Helios 1A Rocket 3.6 18:28:53 10° S 18:32:57 61° WSW 18:37:05 10° NNW
CSL-04 Rocket 3.8 18:27:52 10° SE 18:33:12 58° ENE 18:38:38 10° N
Cosmos 1025 Rocket 3.3 18:29:21 10° N 18:33:38 49° ENE 18:37:54 10° SSE
NOSS 2-2 (D) 3.1 18:30:48 10° SW 18:34:19 87° SE 18:38:20 10° NE
ATLAS 2AS CENTAUR R/B 4.0 18:28:24 10° SSE 18:34:19 24° ESE 18:40:13 10° ENE
Cosmos 1937 Rocket 4.0 18:29:10 10° SSW 18:34:23 68° WNW 18:39:36 10° NNE
Okean 2 Rocket 3.4 18:30:20 10° SSE 18:34:35 43° E 18:38:49 10° NNE
YAOGAN 1 2.5 18:31:22 10° SSE 18:35:42 79° ENE 18:40:03 10° NNW
ATLAS 3B R/B 3.5 18:29:49 10° NW 18:36:01 36° NNE 18:42:23 10° E
SKYMED 2 3.9 18:33:31 10° N 18:37:52 74° WNW 18:42:12 10° SSW
Abrixas rocket 2.2 18:36:41 10° W 18:39:29 56° SSW 18:42:11 11° ESE
CREW DRAGON DEMO-1 DEB 2.8 18:38:21 10° WNW 18:41:24 83° SSW 18:44:16 11° ESE
CZ-4B R/B 4.5 18:39:18 10° NNW 18:42:00 21° WNW 18:44:42 10° WSW
Cosmos 1536 Rocket 3.9 18:39:06 10° N 18:43:25 47° ENE 18:47:44 10° SSE
Cosmos 1125 Rocket 4.0 18:42:07 10° SSE 18:46:57 37° ESE 18:51:49 10° NE
SJ-6B 4.1 18:48:31 11° ESE 18:51:08 22° ENE 18:54:05 10° NNE
CZ-4 R/B 2.2 18:49:10 10° S 18:53:19 58° W 18:57:26 10° NNW
USA 238 DEB 4.0 18:46:09 10° NW 18:53:21 80° SW 19:00:51 10° SE
USA 238 4.0 18:46:16 10° NW 18:53:29 80° SW 19:00:58 10° SE
Cosmos 2150 Rocket 4.1 18:48:29 10° S 18:53:46 61° ESE 18:59:10 10° NNE
SJ-11-01 4.2 18:49:41 10° SSE 18:54:22 74° ENE 18:59:04 10° N
CZ-2C R/B 3.3 18:50:03 10° SSE 18:55:27 90° WNW 19:01:11 10° NNW
Cosmos 1464 Rocket 3.9 18:49:24 10° S 18:55:29 71° E 19:01:41 10° NNE
Cosmos 1674 3.2 18:52:09 10° N 18:55:48 39° ENE 18:59:26 10° SE
Cosmos 1092 Rocket 4.4 18:50:50 10° N 18:56:39 41° ENE 19:02:27 10° SE
Okean-O 3.7 18:52:55 10° S 18:57:13 48° W 19:01:32 10° NNW
Cosmos 2285 Rocket 4.4 18:51:54 10° S 18:57:42 40° ESE 19:03:34 10° NE
MOS 1 Rocket 3.2 18:58:29 10° NNE 19:02:46 49° E 19:06:55 10° S
FREGAT/IRIS 3.8 19:04:41 19° ENE 19:04:47 19° ENE 19:06:43 10° NNE
In-Cosmos 22 4.3 19:04:42 10° NNW 19:10:01 76° W 19:15:24 10° S
ARGOS 3.1 19:05:42 10° SSE 19:11:03 75° ENE 19:16:27 10° NNW
Cosmos 1048 Rocket 4.3 19:05:49 10° NNW 19:11:07 72° WSW 19:16:28 10° SSE
CZ-2C R/B 3.3 19:07:50 10° NNE 19:12:56 35° E 19:18:01 10° SSE
Cosmos 1340 Rocket 4.2 19:15:11 19° E 19:15:11 19° E 19:17:47 10° NE
Cosmos 1733 4.0 19:13:48 13° SE 19:16:30 28° E 19:19:49 10° NNE
Cosmos 2151 Rocket 3.5 19:12:43 10° S 19:17:12 84° E 19:21:44 10° NNE
Lacrosse 5 rocket 2.8 19:13:32 10° WNW 19:17:27 31° N 19:20:43 14° ENE
HJ-1C 3.9 19:14:42 10° S 19:17:58 59° W 19:21:15 10° NNW
Cosmos 2082 Rocket 3.5 19:13:57 10° NNW 19:18:34 25° NE 19:21:17 18° E
NOSS 2-2 (C) 4.5 19:15:48 10° WSW 19:19:12 41° NW 19:23:11 10° NE
BREEZE-M DEB (TANK) 3.7 19:18:42 10° W 19:21:37 40° SSW 19:27:36 14° SE
BREEZE-M R/B 4.3 19:10:54 10° WSW 19:22:27 57° SSE 19:24:25 25° E
Cosmos 494 Rocket 4.1 19:18:39 10° NNW 19:23:56 83° WSW 19:29:12 10° SSE
Meteor 1-15 Rocket 4.2 19:22:17 10° S 19:27:54 70° E 19:33:40 10° NNE
Cosmos 1805 3.3 19:24:31 10° S 19:28:19 53° E 19:32:10 10° NNE
OBJECT-B 1.9 19:28:48 27° ENE 19:28:48 27° ENE 19:31:35 10° N
Ariane Rocket 2.9 19:28:06 11° SSE 19:32:54 71° ENE 19:38:00 10° N
SL-08 RB Rocket 3.6 19:28:22 10° SSE 19:32:57 85° ENE 19:37:30 10° NNW
H-2A R/B 2.7 19:29:30 10° S 19:34:25 55° W 19:39:30 10° NNW
Cosmos 1269 Rocket 4.0 19:30:33 10° NNW 19:35:54 74° ENE 19:39:33 21° SSE
Nadezhda 4 Rocket 4.2 19:31:08 10° NNW 19:37:15 71° W 19:43:20 10° S
KORONAS-FOTON 4.0 19:33:27 10° NNW 19:37:24 74° W 19:41:18 10° S
Cosmos 1626 2.2 19:37:30 10° N 19:41:09 53° ENE 19:42:02 42° SE
Okean 1-7 Rocket 4.5 19:37:16 10° N 19:41:21 31° ENE 19:41:51 30° E
Cosmos 2263 Rocket 4.5 19:38:29 10° W 19:42:55 24° NW 19:47:24 10° NNE
USA 186 1.9 19:42:34 23° S 19:44:25 72° W 19:47:44 10° NNW
MetOp-A 4.1 19:40:20 17° SSE 19:44:27 72° ENE 19:49:49 10° N
COSMOS 2406 3.2 19:39:21 10° NNW 19:45:03 66° ENE 19:47:55 29° SE
Cosmos 1844 Rocket 3.0 19:41:04 10° SW 19:46:36 67° WNW 19:52:13 10° NNE
ISS -3.4 19:43:36 10° W 19:46:57 59° N 19:47:46 43° NE
Cosmos 2278 Rocket 2.9 19:45:55 10° SSE 19:51:32 32° E 19:55:52 10° NE
Lacrosse 4 Rocket 2.2 19:48:47 10° NNW 19:52:30 33° NE 19:52:52 32° ENE
IRS-1A Rocket 4.4 19:47:52 10° SSE 19:53:46 82° WSW 19:59:37 10° NNW
Cosmos 1844 3.9 19:48:36 10° SW 19:54:16 72° WNW 19:59:55 10° NNE
Meteor 2-5 Rocket 3.8 19:49:51 10° NNW 19:55:33 84° W 20:00:46 13° S
Meteor 1-22 Rocket 4.3 19:49:58 10° S 19:55:48 62° E 20:01:49 10° NNE
Cosmos 909 Rocket 4.5 19:51:02 10° NNW 19:57:28 47° NE 19:59:54 32° E
Meteor 1-24 Rocket 3.6 19:52:17 10° N 19:57:53 81° E 20:01:38 23° SSE
Exosat Rocket 3.5 19:53:24 10° SSW 19:58:42 82° WNW 20:03:46 10° NNE
Okean 1 Rocket 3.2 19:56:26 10° SSW 20:00:55 76° W 20:05:26 10° N
SL-14 R/B 3.1 19:57:10 10° N 20:01:08 80° E 20:01:55 55° SSE
NOSS 3-4 (A) 3.3 19:55:45 10° SSW 20:01:37 68° SE 20:07:56 10° NE
NOSS 3-4 (C) 3.3 19:55:52 10° SSW 20:01:43 67° SE 20:08:02 10° NE
Resurs 01 Rocket 1.9 20:03:26 45° ENE 20:03:38 46° ENE 20:07:55 10° N
Cosmos 1766 3.6 20:06:13 10° SSW 20:10:07 65° WNW 20:14:04 10° N
Cosmos 1833 Rocket 2.6 20:04:27 10° NNW 20:10:09 75° ENE 20:11:54 45° SE
Cosmos 2251 Rocket 3.8 20:07:51 10° NNW 20:13:05 48° ENE 20:13:44 46° E
Abrixas rocket 4.4 20:12:18 10° WSW 20:13:27 16° SW 20:13:27 16° SW
CENTAUR R/B 4.0 20:07:00 10° NW 20:14:41 48° WSW 20:22:00 14° S
ARIANE 5 R/B 3.5 20:20:05 35° NE 20:20:05 35° NE 20:23:15 10° N
SPOT 3 Rocket 3.4 20:20:50 49° SSE 20:22:16 88° ENE 20:27:28 10° NNW
Cosmos 1634 Rocket 4.0 20:18:06 10° SSW 20:24:16 80° W 20:30:32 10° N
ATLAS 2AS CENTAUR R/B 2.9 20:16:24 10° SW 20:24:23 83° SE 20:32:16 10° NE
SJ-6B 4.1 20:24:09 26° SW 20:25:36 36° W 20:29:08 10° NNW
Resurs 1-3 3.7 20:26:18 60° SSW 20:26:57 74° WSW 20:31:23 10° NNW
ATLAS 3B R/B 2.7 20:20:32 10° NW 20:27:25 85° SW 20:29:50 45° SSE
Cosmos 1892 Rocket 3.6 20:23:52 10° NNW 20:28:13 75° W 20:28:35 69° SW
SPOT 5 4.4 20:33:48 26° NE 20:33:48 26° NE 20:37:27 10° N
Meteor 1-21 Rocket 4.4 20:27:30 10° N 20:33:10 53° ENE 20:33:15 53° ENE
Cosmos 1655 Rocket 3.9 20:30:31 10° N 20:36:49 70° ENE 20:37:50 60° SE
Cosmos 1461 4.2 20:35:28 10° NNW 20:39:30 35° NNE 20:39:30 35° NNE
Cosmos 1340 Rocket 4.0 20:50:43 39° W 20:51:02 40° WNW 20:54:51 10° N
CRYOSAT 2 4.4 20:46:45 10° N 20:51:20 75° NNW 20:51:20 75° NNW
CZ-2C R/B 3.9 20:48:04 10° N 20:53:17 43° WNW 20:58:32 10° SW
Lacrosse 5 rocket 2.4 20:52:54 10° NW 20:56:20 46° NNW 20:56:20 46° NNW
Cosmos 2180 Rocket 4.4 20:57:16 59° SSW 20:58:38 87° WNW 21:05:02 10° N
MetOp-B 4.1 20:58:51 82° WNW 20:58:51 82° WNW 21:04:06 10° NNW
Cosmos 2279 Rocket 4.2 20:57:29 30° SSW 21:00:46 69° WNW 21:07:03 10° N
OBJECT-B 3.6 21:01:59 18° WNW 21:01:59 18° WNW 21:03:37 10° NW
Cosmos 2098 Rocket 3.8 20:54:27 10° N 21:01:16 82° W 21:01:45 75° SSW
Cosmos 2082 Rocket 2.2 20:57:38 10° NNW 21:03:08 76° W 21:03:08 76° W
Spot 2 Rocket 3.9 21:05:26 56° N 21:05:26 56° N 21:09:27 10° NNW
Cosmos 1809 Rocket 4.5 21:08:35 10° N 21:14:13 71° NNE 21:14:13 71° NNE
Terra 3.6 21:21:44 25° NNE 21:21:44 25° NNE 21:23:56 10° N
ISS -0.3 21:20:34 10° WNW 21:20:44 11° WNW 21:20:44 11° WNW
SPOT 1/Viking Rocket 4.3 21:29:22 49° NNW 21:29:22 49° NNW 21:33:10 10° NNW
ATLAS CENTAUR R/B 4.2 21:27:11 10° N 21:27:26 11° N 21:27:26 11° N
Lacrosse 4 Rocket 3.7 21:27:28 10° NW 21:29:10 21° WNW 21:29:10 21° WNW
Cosmos 2278 Rocket 3.0 21:33:01 37° WSW 21:34:47 49° NW 21:40:18 10° NNE
Resurs 01 Rocket 3.8 21:41:01 22° W 21:41:01 22° W 21:43:53 10° NW
ATLAS 2AS CENTAUR R/B 4.1 22:08:42 10° W 22:16:10 41° NNW 22:23:25 10° NE
ATLAS 3B R/B 4.4 22:12:18 10° WNW 22:17:06 21° WSW 22:17:06 21° WSW
NOSS 3-1 (C) 4.4 22:31:35 10° NW 22:37:25 54° N 22:37:25 54° N
CZ-4C R/B 4.4 22:45:17 19° NNE 22:45:17 19° NNE 22:47:16 10° NE
Cosmos 2297 Rocket 4.5 22:53:37 10° N 22:56:26 18° NNE 22:56:26 18° NNE
